Location: Unspecified
(0.0000°N, 0.0000°E)
Time: 06:21:15
(UTC+00:00)

Hubble Space Telescope - Pass Details

Date: 23 November 2020
Orbit: 536 x 540 km, 28.5° (Epoch: 03 December)

Event Time Altitude Azimuth Distance (km) Brightness Sun altitude
Rises 19:42:35 0° 258° (WSW) 2,666 5.6 -27.0°
Reaches altitude 10° 19:45:02 10° 269° (W) 1,774 4.2 -27.5°
Enters shadow 19:47:23 25° 298° (WNW) 1,106 2.7 -28.1°
